Location: Kaseke
(18.0171°S, 31.0526°E)
Time: 12:51:35
(UTC+00:00)

Cosmos 1544 Rocket - Pass Details

Date: 14 July 2020
Orbit: 605 x 630 km, 82.5° (Epoch: 07 August)

Event Time Altitude Azimuth Distance (km) Brightness Sun altitude
Exits shadow 03:22:46 - 189° (S) 2,675 6.6 -15.3°
Reaches altitude 10° 03:24:31 10° 190° (S) 1,969 5.9 -14.9°
Maximum altitude 03:28:50 71° 274° (W) 648 3.4 -13.9°
Drops below altitude 10° 03:33:08 10° 357° (N) 1,954 6.3 -12.9°
Sets 03:35:21 0° 359° (N) 2,854 7.2 -12.4°
